This is the latest recevied weather packets stored in our database for station/object N7NIP. If no packets are shown the sender has not sent any weather packets the latest 1 day(s).
| Time | Temp. | Humidity | Pressure | Rain* | Wind** | Luminosity | Snow |
|---|---|---|---|---|---|---|---|
| 1778038139 | 12.78° C | 88% | 1029.2 hPa | 0 mm | - | 3 W/m² | - |
| 1778037836 | 13.33° C | 87% | 1029.4 hPa | 0 mm | - | 5 W/m² | - |
| 1778037533 | 13.33° C | 86% | 1029.2 hPa | 0 mm | - | 7 W/m² | - |
| 1778037230 | 13.89° C | 86% | 1029.3 hPa | 0 mm | - | 10 W/m² | - |
| 1778036928 | 13.89° C | 85% | 1029.1 hPa | 0 mm | - | 13 W/m² | - |
| 1778036626 | 13.89° C | 84% | 1029.1 hPa | 0 mm | - | 16 W/m² | - |
| 1778036322 | 14.44° C | 84% | 1029.3 hPa | 0 mm | - | 20 W/m² | - |
| 1778036018 | 14.44° C | 83% | 1029.1 hPa | 0 mm | - | 24 W/m² | - |
| 1778035716 | 15° C | 81% | 1029.2 hPa | 0 mm | - | 29 W/m² | - |
| 1778035109 | 15.56° C | 79% | 1029.1 hPa | 0 mm | - | 36 W/m² | - |
| 1778034502 | 16.11° C | 76% | 1029.3 hPa | 0 mm | - | 43 W/m² | - |
| 1778034200 | 16.11° C | 74% | 1029.1 hPa | 0 mm | - | 48 W/m² | - |
| 1778032687 | 17.22° C | 71% | 1029.2 hPa | 0 mm | - | 60 W/m² | - |
| 1778032384 | 17.78° C | 67% | 1029.1 hPa | 0 mm | - | 62 W/m² | - |
| 1778031777 | 18.89° C | 64% | 1029.1 hPa | 0 mm | - | 143 W/m² | - |
| 1778031474 | 18.33° C | 65% | 1029.3 hPa | 0 mm | - | 158 W/m² | - |
| 1778030868 | 17.78° C | 66% | 1029.1 hPa | 0 mm | - | 191 W/m² | - |
| 1778030565 | 17.78° C | 67% | 1029.1 hPa | 0 mm | - | 207 W/m² | - |
| 1778029958 | 18.33° C | 66% | 1029.1 hPa | 0 mm | - | 249 W/m² | - |
| 1778029657 | 17.78° C | 66% | 1029.1 hPa | 0 mm | - | 265 W/m² | - |
| 1778029354 | 17.78° C | 68% | 1029.2 hPa | 0 mm | - | 288 W/m² | - |
| 1778029051 | 18.33° C | 66% | 1029.3 hPa | 0 mm | - | 303 W/m² | - |
| 1778028748 | 18.89° C | 64% | 1029.3 hPa | 0 mm | - | 319 W/m² | - |
| 1778027837 | 18.89° C | 66% | 1029.1 hPa | 0 mm | - | 386 W/m² | - |
| 1778027534 | 18.33° C | 66% | 1029.4 hPa | 0 mm | - | 427 W/m² | - |
* Rain latest hour (hover to see other rain measurements)
** Current wind speed in m/s (hover to see current wind gust speed)